Year,Month,Day,Hour,Minute,Value (Times are PST for temperature in C)
2017,07,14,00,00,13.20
2017,07,14,00,01,13.20
2017,07,14,00,02,13.20
2017,07,14,00,03,13.10
2017,07,14,00,04,13.10
2017,07,14,00,05,13.10
2017,07,14,00,06,13.10
2017,07,14,00,07,13.10
2017,07,14,00,08,13.10
2017,07,14,00,09,13.10
2017,07,14,00,10,13.10
2017,07,14,00,11,13.10
2017,07,14,00,12,13.10
2017,07,14,00,13,13.10
2017,07,14,00,14,13.10
2017,07,14,00,15,13.10
2017,07,14,00,16,13.10
2017,07,14,00,17,13.10
2017,07,14,00,18,13.00
2017,07,14,00,19,13.00
2017,07,14,00,20,12.90
2017,07,14,00,21,12.90
2017,07,14,00,22,12.90
2017,07,14,00,23,12.90
2017,07,14,00,24,12.90
2017,07,14,00,25,12.90
2017,07,14,00,26,12.90
2017,07,14,00,27,12.90
2017,07,14,00,28,12.90
2017,07,14,00,29,12.80
2017,07,14,00,30,12.70
2017,07,14,00,31,12.70
2017,07,14,00,32,12.60
2017,07,14,00,33,12.60
2017,07,14,00,34,12.60
2017,07,14,00,35,12.50
2017,07,14,00,36,12.50
2017,07,14,00,37,12.50
2017,07,14,00,38,12.40
2017,07,14,00,39,12.40
2017,07,14,00,40,12.40
2017,07,14,00,41,12.30
2017,07,14,00,42,12.30
2017,07,14,00,43,12.30
2017,07,14,00,44,12.30
2017,07,14,00,45,12.20
2017,07,14,00,46,12.20
2017,07,14,00,47,12.20
2017,07,14,00,48,12.20
2017,07,14,00,49,12.20
2017,07,14,00,50,12.20
2017,07,14,00,51,12.20
2017,07,14,00,52,12.20
2017,07,14,00,53,12.20
2017,07,14,00,54,12.20
2017,07,14,00,55,12.20
2017,07,14,00,56,12.20
2017,07,14,00,57,12.20
2017,07,14,00,58,12.20
2017,07,14,00,59,12.20
2017,07,14,01,00,12.10
2017,07,14,01,01,12.10
2017,07,14,01,02,12.10
2017,07,14,01,03,12.10
2017,07,14,01,04,12.10
2017,07,14,01,05,12.10
2017,07,14,01,06,12.10
2017,07,14,01,07,12.10
2017,07,14,01,08,12.10
2017,07,14,01,09,12.10
2017,07,14,01,10,12.10
2017,07,14,01,11,12.10
2017,07,14,01,12,12.10
2017,07,14,01,13,12.10
2017,07,14,01,14,12.10
2017,07,14,01,15,12.10
2017,07,14,01,16,12.10
2017,07,14,01,17,12.10
2017,07,14,01,18,12.10
2017,07,14,01,19,12.10
2017,07,14,01,20,12.10
2017,07,14,01,21,12.10
2017,07,14,01,22,12.00
2017,07,14,01,23,12.10
2017,07,14,01,24,12.10
2017,07,14,01,25,12.10
2017,07,14,01,26,12.10
2017,07,14,01,27,12.10
2017,07,14,01,28,12.10
2017,07,14,01,29,12.10
2017,07,14,01,30,12.10
2017,07,14,01,31,12.10
2017,07,14,01,32,12.10
2017,07,14,01,33,12.10
2017,07,14,01,34,12.00
2017,07,14,01,35,12.00
2017,07,14,01,36,12.00
2017,07,14,01,37,11.90
2017,07,14,01,38,11.90
2017,07,14,01,39,11.80
2017,07,14,01,40,11.80
2017,07,14,01,41,11.80
2017,07,14,01,42,11.70
2017,07,14,01,43,11.70
2017,07,14,01,44,11.70
2017,07,14,01,45,11.70
2017,07,14,01,46,11.70
2017,07,14,01,47,11.70
2017,07,14,01,48,11.70
2017,07,14,01,49,11.70
2017,07,14,01,50,11.70
2017,07,14,01,51,11.70
2017,07,14,01,52,11.80
2017,07,14,01,53,11.80
2017,07,14,01,54,11.80
2017,07,14,01,55,11.80
2017,07,14,01,56,11.80
2017,07,14,01,57,11.80
2017,07,14,01,58,11.80
2017,07,14,01,59,11.80
2017,07,14,02,00,11.80
2017,07,14,02,01,11.80
2017,07,14,02,02,11.70
2017,07,14,02,03,11.70
2017,07,14,02,04,11.70
2017,07,14,02,05,11.60
2017,07,14,02,06,11.60
2017,07,14,02,07,11.50
2017,07,14,02,08,11.40
2017,07,14,02,09,11.40
2017,07,14,02,10,11.30
2017,07,14,02,11,11.30
2017,07,14,02,12,11.30
2017,07,14,02,13,11.30
2017,07,14,02,14,11.30
2017,07,14,02,15,11.20
2017,07,14,02,16,11.20
2017,07,14,02,17,11.20
2017,07,14,02,18,11.20
2017,07,14,02,19,11.20
2017,07,14,02,20,11.20
2017,07,14,02,21,11.20
2017,07,14,02,22,11.10
2017,07,14,02,23,11.10
2017,07,14,02,24,11.10
2017,07,14,02,25,11.10
2017,07,14,02,26,11.00
2017,07,14,02,27,11.00
2017,07,14,02,28,11.00
2017,07,14,02,29,10.90
2017,07,14,02,30,10.90
2017,07,14,02,31,10.90
2017,07,14,02,32,10.90
2017,07,14,02,33,10.90
2017,07,14,02,34,10.90
2017,07,14,02,35,10.80
2017,07,14,02,36,10.80
2017,07,14,02,37,10.80
2017,07,14,02,38,10.80
2017,07,14,02,39,10.80
2017,07,14,02,40,10.80
2017,07,14,02,41,10.80
2017,07,14,02,42,10.80
2017,07,14,02,43,10.70
2017,07,14,02,44,10.70
2017,07,14,02,45,10.70
2017,07,14,02,46,10.70
2017,07,14,02,47,10.70
2017,07,14,02,48,10.70
2017,07,14,02,49,10.70
2017,07,14,02,50,10.70
2017,07,14,02,51,10.70
2017,07,14,02,52,10.70
2017,07,14,02,53,10.70
2017,07,14,02,54,10.70
2017,07,14,02,55,10.70
2017,07,14,02,56,10.70
2017,07,14,02,57,10.70
2017,07,14,02,58,10.70
2017,07,14,02,59,10.70
2017,07,14,03,00,10.70
2017,07,14,03,01,10.70
2017,07,14,03,02,10.70
2017,07,14,03,03,10.70
2017,07,14,03,04,10.70
2017,07,14,03,05,10.70
2017,07,14,03,06,10.70
2017,07,14,03,07,10.70
2017,07,14,03,08,10.70
2017,07,14,03,09,10.70
2017,07,14,03,10,10.60
2017,07,14,03,11,10.60
2017,07,14,03,12,10.60
2017,07,14,03,13,10.60
2017,07,14,03,14,10.60
2017,07,14,03,15,10.60
2017,07,14,03,16,10.60
2017,07,14,03,17,10.60
2017,07,14,03,18,10.60
2017,07,14,03,19,10.60
2017,07,14,03,20,10.60
2017,07,14,03,21,10.60
2017,07,14,03,22,10.60
2017,07,14,03,23,10.60
2017,07,14,03,24,10.60
2017,07,14,03,25,10.60
2017,07,14,03,26,10.60
2017,07,14,03,27,10.60
2017,07,14,03,28,10.60
2017,07,14,03,29,10.60
2017,07,14,03,30,10.50
2017,07,14,03,31,10.50
2017,07,14,03,32,10.50
2017,07,14,03,33,10.50
2017,07,14,03,34,10.50
2017,07,14,03,35,10.50
2017,07,14,03,36,10.50
2017,07,14,03,37,10.50
2017,07,14,03,38,10.40
2017,07,14,03,39,10.40
2017,07,14,03,40,10.40
2017,07,14,03,41,10.40
2017,07,14,03,42,10.40
2017,07,14,03,43,10.40
2017,07,14,03,44,10.40
2017,07,14,03,45,10.40
2017,07,14,03,46,10.40
2017,07,14,03,47,10.40
2017,07,14,03,48,10.40
2017,07,14,03,49,10.30
2017,07,14,03,50,10.30
2017,07,14,03,51,10.30
2017,07,14,03,52,10.30
2017,07,14,03,53,10.30
2017,07,14,03,54,10.30
2017,07,14,03,55,10.30
2017,07,14,03,56,10.30
2017,07,14,03,57,10.30
2017,07,14,03,58,10.30
2017,07,14,03,59,10.20
2017,07,14,04,00,10.20
2017,07,14,04,01,10.20
2017,07,14,04,02,10.20
2017,07,14,04,03,10.20
2017,07,14,04,04,10.10
2017,07,14,04,05,10.10
2017,07,14,04,06,10.10
2017,07,14,04,07,10.10
2017,07,14,04,08,10.10
2017,07,14,04,09,10.00
2017,07,14,04,10,10.00
2017,07,14,04,11,10.00
2017,07,14,04,12,10.00
2017,07,14,04,13,9.90
2017,07,14,04,14,9.90
2017,07,14,04,15,9.90
2017,07,14,04,16,9.90
2017,07,14,04,17,9.90
2017,07,14,04,18,9.90
2017,07,14,04,19,9.80
2017,07,14,04,20,9.80
2017,07,14,04,21,9.80
2017,07,14,04,22,9.80
2017,07,14,04,23,9.80
2017,07,14,04,24,9.80
2017,07,14,04,25,9.80
2017,07,14,04,26,9.80
2017,07,14,04,27,9.80
2017,07,14,04,28,9.80
2017,07,14,04,29,9.80
2017,07,14,04,30,9.80
2017,07,14,04,31,9.80
2017,07,14,04,32,9.70
2017,07,14,04,33,9.70
2017,07,14,04,34,9.70
2017,07,14,04,35,9.70
2017,07,14,04,36,9.70
2017,07,14,04,37,9.70
2017,07,14,04,38,9.70
2017,07,14,04,39,9.70
2017,07,14,04,40,9.60
2017,07,14,04,41,9.60
2017,07,14,04,42,9.60
2017,07,14,04,43,9.60
2017,07,14,04,44,9.60
2017,07,14,04,45,9.60
2017,07,14,04,46,9.50
2017,07,14,04,47,9.50
2017,07,14,04,48,9.50
2017,07,14,04,49,9.50
2017,07,14,04,50,9.50
2017,07,14,04,51,9.50
2017,07,14,04,52,9.50
2017,07,14,04,53,9.50
2017,07,14,04,54,9.50
2017,07,14,04,55,9.40
2017,07,14,04,56,9.40
2017,07,14,04,57,9.40
2017,07,14,04,58,9.40
2017,07,14,04,59,9.40
2017,07,14,05,00,9.40
2017,07,14,05,01,9.40
2017,07,14,05,02,9.40
2017,07,14,05,03,9.40
2017,07,14,05,04,9.40
2017,07,14,05,05,9.40
2017,07,14,05,06,9.40
2017,07,14,05,07,9.40
2017,07,14,05,08,9.40
2017,07,14,05,09,9.30
2017,07,14,05,10,9.30
2017,07,14,05,11,9.30
2017,07,14,05,12,9.30
2017,07,14,05,13,9.30
2017,07,14,05,14,9.30
2017,07,14,05,15,9.30
2017,07,14,05,16,9.30
2017,07,14,05,17,9.20
2017,07,14,05,18,9.20
2017,07,14,05,19,9.20
2017,07,14,05,20,9.20
2017,07,14,05,21,9.20
2017,07,14,05,22,9.20
2017,07,14,05,23,9.20
2017,07,14,05,24,9.20
2017,07,14,05,25,9.20
2017,07,14,05,26,9.20
2017,07,14,05,27,9.20
2017,07,14,05,28,9.20
2017,07,14,05,29,9.20
2017,07,14,05,30,9.10
2017,07,14,05,31,9.10
2017,07,14,05,32,9.10
2017,07,14,05,33,9.10
2017,07,14,05,34,9.10
2017,07,14,05,35,9.10
2017,07,14,05,36,9.10
2017,07,14,05,37,9.10
2017,07,14,05,38,9.10
2017,07,14,05,39,9.10
2017,07,14,05,40,9.00
2017,07,14,05,41,9.10
2017,07,14,05,42,9.00
2017,07,14,05,43,9.00
2017,07,14,05,44,9.00
2017,07,14,05,45,9.00
2017,07,14,05,46,9.00
2017,07,14,05,47,9.00
2017,07,14,05,48,9.00
2017,07,14,05,49,9.00
2017,07,14,05,50,9.00
2017,07,14,05,51,8.90
2017,07,14,05,52,8.90
2017,07,14,05,53,8.90
2017,07,14,05,54,9.00
2017,07,14,05,55,8.90
2017,07,14,05,56,8.90
2017,07,14,05,57,8.90
2017,07,14,05,58,8.90
2017,07,14,05,59,8.90
2017,07,14,06,00,8.90
2017,07,14,06,01,8.90
2017,07,14,06,02,8.90
2017,07,14,06,03,8.90
2017,07,14,06,04,8.90
2017,07,14,06,05,8.80
2017,07,14,06,06,8.80
2017,07,14,06,07,8.80
2017,07,14,06,08,8.80
2017,07,14,06,09,8.80
2017,07,14,06,10,8.80
2017,07,14,06,11,8.80
2017,07,14,06,12,8.80
2017,07,14,06,13,8.80
2017,07,14,06,14,8.80
2017,07,14,06,15,8.80
2017,07,14,06,16,8.80
2017,07,14,06,17,8.80
2017,07,14,06,18,8.80
2017,07,14,06,19,8.80
2017,07,14,06,20,8.80
2017,07,14,06,21,8.80
2017,07,14,06,22,8.80
2017,07,14,06,23,8.80
2017,07,14,06,24,8.80
2017,07,14,06,25,8.80
2017,07,14,06,26,8.80
2017,07,14,06,27,8.80
2017,07,14,06,28,8.80
2017,07,14,06,29,8.80
2017,07,14,06,30,8.90
2017,07,14,06,31,8.90
2017,07,14,06,32,8.90
2017,07,14,06,33,9.00
2017,07,14,06,34,9.00
2017,07,14,06,35,9.10
2017,07,14,06,36,9.10
2017,07,14,06,37,9.10
2017,07,14,06,38,9.20
2017,07,14,06,39,9.20
2017,07,14,06,40,9.20
2017,07,14,06,41,9.30
2017,07,14,06,42,9.30
2017,07,14,06,43,9.30
2017,07,14,06,44,9.40
2017,07,14,06,45,9.40
2017,07,14,06,46,9.50
2017,07,14,06,47,9.60
2017,07,14,06,48,9.60
2017,07,14,06,49,9.70
2017,07,14,06,50,9.70
2017,07,14,06,51,9.80
2017,07,14,06,52,9.80
2017,07,14,06,53,9.80
2017,07,14,06,54,9.90
2017,07,14,06,55,9.90
2017,07,14,06,56,10.00
2017,07,14,06,57,10.00
2017,07,14,06,58,10.10
2017,07,14,06,59,10.10
2017,07,14,07,00,10.10
2017,07,14,07,01,10.10
2017,07,14,07,02,10.20
2017,07,14,07,03,10.20
2017,07,14,07,04,10.20
2017,07,14,07,05,10.30
2017,07,14,07,06,10.30
2017,07,14,07,07,10.30
2017,07,14,07,08,10.40
2017,07,14,07,09,10.40
2017,07,14,07,10,10.40
2017,07,14,07,11,10.50
2017,07,14,07,12,10.60
2017,07,14,07,13,10.60
2017,07,14,07,14,10.60
2017,07,14,07,15,10.70
2017,07,14,07,16,10.70
2017,07,14,07,17,10.70
2017,07,14,07,18,10.70
2017,07,14,07,19,10.80
2017,07,14,07,20,10.80
2017,07,14,07,21,10.80
2017,07,14,07,22,10.90
2017,07,14,07,23,10.90
2017,07,14,07,24,11.00
2017,07,14,07,25,11.10
2017,07,14,07,26,11.10
2017,07,14,07,27,11.20
2017,07,14,07,28,11.30
2017,07,14,07,29,11.30
2017,07,14,07,30,11.40
2017,07,14,07,31,11.50
2017,07,14,07,32,11.60
2017,07,14,07,33,11.70
2017,07,14,07,34,11.70
2017,07,14,07,35,11.80
2017,07,14,07,36,11.80
2017,07,14,07,37,11.90
2017,07,14,07,38,11.90
2017,07,14,07,39,12.00
2017,07,14,07,40,12.10
2017,07,14,07,41,12.10
2017,07,14,07,42,12.20
2017,07,14,07,43,12.30
2017,07,14,07,44,12.30
2017,07,14,07,45,12.40
2017,07,14,07,46,12.40
2017,07,14,07,47,12.50
2017,07,14,07,48,12.50
2017,07,14,07,49,12.60
2017,07,14,07,50,12.60
2017,07,14,07,51,12.60
2017,07,14,07,52,12.70
2017,07,14,07,53,12.70
2017,07,14,07,54,12.80
2017,07,14,07,55,12.80
2017,07,14,07,56,12.80
2017,07,14,07,57,12.80
2017,07,14,07,58,12.80
2017,07,14,07,59,12.80
2017,07,14,08,00,12.80
2017,07,14,08,01,12.80
2017,07,14,08,02,12.80
2017,07,14,08,03,12.90
2017,07,14,08,04,12.90
2017,07,14,08,05,13.10
2017,07,14,08,06,13.20
2017,07,14,08,07,13.30
2017,07,14,08,08,13.30
2017,07,14,08,09,13.40
2017,07,14,08,10,13.50
2017,07,14,08,11,13.50
2017,07,14,08,12,13.60
2017,07,14,08,13,13.60
2017,07,14,08,14,13.60
2017,07,14,08,15,13.70
2017,07,14,08,16,13.70
2017,07,14,08,17,13.80
2017,07,14,08,18,13.80
2017,07,14,08,19,13.80
2017,07,14,08,20,13.90
2017,07,14,08,21,13.90
2017,07,14,08,22,13.90
2017,07,14,08,23,14.00
2017,07,14,08,24,14.00
2017,07,14,08,25,14.10
2017,07,14,08,26,14.10
2017,07,14,08,27,14.10
2017,07,14,08,28,14.20
2017,07,14,08,29,14.20
2017,07,14,08,30,14.30
2017,07,14,08,31,14.30
2017,07,14,08,32,14.40
2017,07,14,08,33,14.50
2017,07,14,08,34,14.60
2017,07,14,08,35,14.70
2017,07,14,08,36,14.70
2017,07,14,08,37,14.80
2017,07,14,08,38,14.80
2017,07,14,08,39,14.90
2017,07,14,08,40,14.90
2017,07,14,08,41,14.90
2017,07,14,08,42,15.00
2017,07,14,08,43,14.90
2017,07,14,08,44,14.90
2017,07,14,08,45,14.80
2017,07,14,08,46,14.80
2017,07,14,08,47,14.80
2017,07,14,08,48,14.80
2017,07,14,08,49,14.70
2017,07,14,08,50,14.70
2017,07,14,08,51,14.70
2017,07,14,08,52,14.80
2017,07,14,08,53,14.80
2017,07,14,08,54,14.80
2017,07,14,08,55,14.80
2017,07,14,08,56,14.80
2017,07,14,08,57,14.90
2017,07,14,08,58,14.90
2017,07,14,08,59,14.90
2017,07,14,09,00,15.00
2017,07,14,09,01,15.10
2017,07,14,09,02,15.10
2017,07,14,09,03,15.20
2017,07,14,09,04,15.30
2017,07,14,09,05,15.40
2017,07,14,09,06,15.50
2017,07,14,09,07,15.50
2017,07,14,09,08,15.50
2017,07,14,09,09,15.50
2017,07,14,09,10,15.40
2017,07,14,09,11,15.40
2017,07,14,09,12,15.40
2017,07,14,09,13,15.40
2017,07,14,09,14,15.50
2017,07,14,09,15,15.50
2017,07,14,09,16,15.60
2017,07,14,09,17,15.70
2017,07,14,09,18,15.70
2017,07,14,09,19,15.70
2017,07,14,09,20,15.70
2017,07,14,09,21,15.70
2017,07,14,09,22,15.70
2017,07,14,09,23,15.70
2017,07,14,09,24,15.70
2017,07,14,09,25,15.80
2017,07,14,09,26,15.80
2017,07,14,09,27,15.90
2017,07,14,09,28,16.00
2017,07,14,09,29,16.00
2017,07,14,09,30,16.10
2017,07,14,09,31,16.10
2017,07,14,09,32,16.20
2017,07,14,09,33,16.20
2017,07,14,09,34,16.30
2017,07,14,09,35,16.30
2017,07,14,09,36,16.40
2017,07,14,09,37,16.50
2017,07,14,09,38,16.60
2017,07,14,09,39,16.70
2017,07,14,09,40,16.70
2017,07,14,09,41,16.80
2017,07,14,09,42,16.80
2017,07,14,09,43,16.90
2017,07,14,09,44,17.00
2017,07,14,09,45,17.00
2017,07,14,09,46,17.10
2017,07,14,09,47,17.10
2017,07,14,09,48,17.10
2017,07,14,09,49,17.10
2017,07,14,09,50,17.20
2017,07,14,09,51,17.30
2017,07,14,09,52,17.30
2017,07,14,09,53,17.40
2017,07,14,09,54,17.50
2017,07,14,09,55,17.50
2017,07,14,09,56,17.50
2017,07,14,09,57,17.60
2017,07,14,09,58,17.60
2017,07,14,09,59,17.60
2017,07,14,10,00,17.60
2017,07,14,10,01,17.50
2017,07,14,10,02,17.50
2017,07,14,10,03,17.40
2017,07,14,10,04,17.40
2017,07,14,10,05,17.30
2017,07,14,10,06,17.20
2017,07,14,10,07,17.10
2017,07,14,10,08,17.10
2017,07,14,10,09,17.00
2017,07,14,10,10,16.90
2017,07,14,10,11,16.90
2017,07,14,10,12,17.00
2017,07,14,10,13,17.10
2017,07,14,10,14,17.20
2017,07,14,10,15,17.30
2017,07,14,10,16,17.40
2017,07,14,10,17,17.50
2017,07,14,10,18,17.50
2017,07,14,10,19,17.50
2017,07,14,10,20,17.40
2017,07,14,10,21,17.40
2017,07,14,10,22,17.40
2017,07,14,10,23,17.40
2017,07,14,10,24,17.50
2017,07,14,10,25,17.50
2017,07,14,10,26,17.70
2017,07,14,10,27,17.80
2017,07,14,10,28,18.00
2017,07,14,10,29,18.10
2017,07,14,10,30,18.20
2017,07,14,10,31,18.20
2017,07,14,10,32,18.20
2017,07,14,10,33,18.20
2017,07,14,10,34,18.20
2017,07,14,10,35,18.20
2017,07,14,10,36,18.20
2017,07,14,10,37,18.20
2017,07,14,10,38,18.30
2017,07,14,10,39,18.30
2017,07,14,10,40,18.30
2017,07,14,10,41,18.30
2017,07,14,10,42,18.30
2017,07,14,10,43,18.40
2017,07,14,10,44,18.40
2017,07,14,10,45,18.40
2017,07,14,10,46,18.40
2017,07,14,10,47,18.30
2017,07,14,10,48,18.30
2017,07,14,10,49,18.30
2017,07,14,10,50,18.40
2017,07,14,10,51,18.40
2017,07,14,10,52,18.50
2017,07,14,10,53,18.50
2017,07,14,10,54,18.60
2017,07,14,10,55,18.70
2017,07,14,10,56,18.70
2017,07,14,10,57,18.80
2017,07,14,10,58,18.80
2017,07,14,10,59,18.90
2017,07,14,11,00,19.00
2017,07,14,11,01,19.10
2017,07,14,11,02,19.10
2017,07,14,11,03,19.20
2017,07,14,11,04,19.20
2017,07,14,11,05,19.10
2017,07,14,11,06,19.20
2017,07,14,11,07,19.10
2017,07,14,11,08,19.10
2017,07,14,11,09,19.00
2017,07,14,11,10,19.00
2017,07,14,11,11,19.00
2017,07,14,11,12,19.00
2017,07,14,11,13,19.10
2017,07,14,11,14,19.20
2017,07,14,11,15,19.30
2017,07,14,11,16,19.30
2017,07,14,11,17,19.30
2017,07,14,11,18,19.40
2017,07,14,11,19,19.40
2017,07,14,11,20,19.50
2017,07,14,11,21,19.60
2017,07,14,11,22,19.60
2017,07,14,11,23,19.60
2017,07,14,11,24,19.60
2017,07,14,11,25,19.70
2017,07,14,11,26,19.70
2017,07,14,11,27,19.70
2017,07,14,11,28,19.80
2017,07,14,11,29,19.80
2017,07,14,11,30,19.90
2017,07,14,11,31,20.10
2017,07,14,11,32,20.20
2017,07,14,11,33,20.30
2017,07,14,11,34,20.30
2017,07,14,11,35,20.40
2017,07,14,11,36,20.40
2017,07,14,11,37,20.40
2017,07,14,11,38,20.40
2017,07,14,11,39,20.50
2017,07,14,11,40,20.60
2017,07,14,11,41,20.80
2017,07,14,11,42,20.90
2017,07,14,11,43,21.10
2017,07,14,11,44,21.20
2017,07,14,11,45,21.20
2017,07,14,11,46,21.30
2017,07,14,11,47,21.40
2017,07,14,11,48,21.60
2017,07,14,11,49,21.70
2017,07,14,11,50,21.70
2017,07,14,11,51,21.60
2017,07,14,11,52,21.40
2017,07,14,11,53,21.30
2017,07,14,11,54,21.20
2017,07,14,11,55,21.20
2017,07,14,11,56,21.20
2017,07,14,11,57,21.20
2017,07,14,11,58,21.20
2017,07,14,11,59,21.20
2017,07,14,12,00,21.30
2017,07,14,12,01,21.30
2017,07,14,12,02,21.30
2017,07,14,12,03,21.40
2017,07,14,12,04,21.40
2017,07,14,12,05,21.40
2017,07,14,12,06,21.30
2017,07,14,12,07,21.30
2017,07,14,12,08,21.20
2017,07,14,12,09,21.10
2017,07,14,12,10,21.10
2017,07,14,12,11,21.10
2017,07,14,12,12,21.10
2017,07,14,12,13,21.20
2017,07,14,12,14,21.30
2017,07,14,12,15,21.50
2017,07,14,12,16,21.50
2017,07,14,12,17,21.60
2017,07,14,12,18,21.70
2017,07,14,12,19,21.80
2017,07,14,12,20,21.80
2017,07,14,12,21,21.80
2017,07,14,12,22,21.80
2017,07,14,12,23,21.80
2017,07,14,12,24,21.70
2017,07,14,12,25,21.70
2017,07,14,12,26,21.60
2017,07,14,12,27,21.60
2017,07,14,12,28,21.60
2017,07,14,12,29,21.60
2017,07,14,12,30,21.70
2017,07,14,12,31,21.80
2017,07,14,12,32,21.80
2017,07,14,12,33,21.90
2017,07,14,12,34,21.90
2017,07,14,12,35,21.90
2017,07,14,12,36,21.90
2017,07,14,12,37,21.90
2017,07,14,12,38,21.90
2017,07,14,12,39,22.00
2017,07,14,12,40,22.00
2017,07,14,12,41,22.00
2017,07,14,12,42,22.10
2017,07,14,12,43,22.00
2017,07,14,12,44,22.00
2017,07,14,12,45,22.10
2017,07,14,12,46,22.10
2017,07,14,12,47,22.10
2017,07,14,12,48,22.20
2017,07,14,12,49,22.30
2017,07,14,12,50,22.40
2017,07,14,12,51,22.50
2017,07,14,12,52,22.60
2017,07,14,12,53,22.60
2017,07,14,12,54,22.70
2017,07,14,12,55,22.80
2017,07,14,12,56,22.80
2017,07,14,12,57,22.90
2017,07,14,12,58,22.90
2017,07,14,12,59,22.90
2017,07,14,13,00,22.80
2017,07,14,13,01,22.70
2017,07,14,13,02,22.70
2017,07,14,13,03,22.70
2017,07,14,13,04,22.70
2017,07,14,13,05,22.70
2017,07,14,13,06,22.80
2017,07,14,13,07,22.80
2017,07,14,13,08,22.80
2017,07,14,13,09,22.80
2017,07,14,13,10,22.90
2017,07,14,13,11,22.90
2017,07,14,13,12,23.00
2017,07,14,13,13,23.20
2017,07,14,13,14,23.30
2017,07,14,13,15,23.30
2017,07,14,13,16,23.30
2017,07,14,13,17,23.20
2017,07,14,13,18,23.30
2017,07,14,13,19,23.40
2017,07,14,13,20,23.40
2017,07,14,13,21,23.30
2017,07,14,13,22,23.30
2017,07,14,13,23,23.30
2017,07,14,13,24,23.30
2017,07,14,13,25,23.30
2017,07,14,13,26,23.20
2017,07,14,13,27,23.30
2017,07,14,13,28,23.40
2017,07,14,13,29,23.40
2017,07,14,13,30,23.40
2017,07,14,13,31,23.50
2017,07,14,13,32,23.50
2017,07,14,13,33,23.60
2017,07,14,13,34,23.60
2017,07,14,13,35,23.70
2017,07,14,13,36,23.70
2017,07,14,13,37,23.70
2017,07,14,13,38,23.70
2017,07,14,13,39,23.70
2017,07,14,13,40,23.60
2017,07,14,13,41,23.60
2017,07,14,13,42,23.60
2017,07,14,13,43,23.60
2017,07,14,13,44,23.60
2017,07,14,13,45,23.60
2017,07,14,13,46,23.60
2017,07,14,13,47,23.60
2017,07,14,13,48,23.70
2017,07,14,13,49,23.80
2017,07,14,13,50,23.90
2017,07,14,13,51,24.00
2017,07,14,13,52,24.10
2017,07,14,13,53,24.30
2017,07,14,13,54,24.30
2017,07,14,13,55,24.30
2017,07,14,13,56,24.30
2017,07,14,13,57,24.30
2017,07,14,13,58,24.50
2017,07,14,13,59,24.40
2017,07,14,14,00,24.30
2017,07,14,14,01,24.20
2017,07,14,14,02,24.20
2017,07,14,14,03,24.20
2017,07,14,14,04,24.30
2017,07,14,14,05,24.20
2017,07,14,14,06,24.20
2017,07,14,14,07,24.30
2017,07,14,14,08,24.30
2017,07,14,14,09,24.40
2017,07,14,14,10,24.40
2017,07,14,14,11,24.40
2017,07,14,14,12,24.50
2017,07,14,14,13,24.50
2017,07,14,14,14,24.50
2017,07,14,14,15,24.50
2017,07,14,14,16,24.50
2017,07,14,14,17,24.50
2017,07,14,14,18,24.60
2017,07,14,14,19,24.60
2017,07,14,14,20,24.60
2017,07,14,14,21,24.60
2017,07,14,14,22,24.60
2017,07,14,14,23,24.50
2017,07,14,14,24,24.50
2017,07,14,14,25,24.50
2017,07,14,14,26,24.60
2017,07,14,14,27,24.50
2017,07,14,14,28,24.40
2017,07,14,14,29,24.40
2017,07,14,14,30,24.40
2017,07,14,14,31,24.50
2017,07,14,14,32,24.50
2017,07,14,14,33,24.60
2017,07,14,14,34,24.60
2017,07,14,14,35,24.60
2017,07,14,14,36,24.60
2017,07,14,14,37,24.70
2017,07,14,14,38,24.80
2017,07,14,14,39,24.90
2017,07,14,14,40,24.90
2017,07,14,14,41,24.90
2017,07,14,14,42,24.90
2017,07,14,14,43,25.00
2017,07,14,14,44,25.00
2017,07,14,14,45,25.00
2017,07,14,14,46,25.10
2017,07,14,14,47,25.10
2017,07,14,14,48,25.10
2017,07,14,14,49,25.20
2017,07,14,14,50,25.20
2017,07,14,14,51,25.20
2017,07,14,14,52,25.20
2017,07,14,14,53,25.20
2017,07,14,14,54,25.20
2017,07,14,14,55,25.20
2017,07,14,14,56,25.20
2017,07,14,14,57,25.20
2017,07,14,14,58,25.30
2017,07,14,14,59,25.30
2017,07,14,15,00,25.20
2017,07,14,15,01,25.30
2017,07,14,15,02,25.30
2017,07,14,15,03,25.40
2017,07,14,15,04,25.50
2017,07,14,15,05,25.50
2017,07,14,15,06,25.60
2017,07,14,15,07,25.60
2017,07,14,15,08,25.50
2017,07,14,15,09,25.40
2017,07,14,15,10,25.40
2017,07,14,15,11,25.40
2017,07,14,15,12,25.30
2017,07,14,15,13,25.30
2017,07,14,15,14,25.40
2017,07,14,15,15,25.40
2017,07,14,15,16,25.50
2017,07,14,15,17,25.60
2017,07,14,15,18,25.60
2017,07,14,15,19,25.60
2017,07,14,15,20,25.50
2017,07,14,15,21,25.40
2017,07,14,15,22,25.40
2017,07,14,15,23,25.40
2017,07,14,15,24,25.40
2017,07,14,15,25,25.30
2017,07,14,15,26,25.30
2017,07,14,15,27,25.40
2017,07,14,15,28,25.40
2017,07,14,15,29,25.30
2017,07,14,15,30,25.30
2017,07,14,15,31,25.40
2017,07,14,15,32,25.50
2017,07,14,15,33,25.50
2017,07,14,15,34,25.60
2017,07,14,15,35,25.70
2017,07,14,15,36,25.80
2017,07,14,15,37,25.80
2017,07,14,15,38,25.80
2017,07,14,15,39,25.80
2017,07,14,15,40,25.80
2017,07,14,15,41,25.70
2017,07,14,15,42,25.50
2017,07,14,15,43,25.50
2017,07,14,15,44,25.50
2017,07,14,15,45,25.60
2017,07,14,15,46,25.60
2017,07,14,15,47,25.60
2017,07,14,15,48,25.60
2017,07,14,15,49,25.60
2017,07,14,15,50,25.50
2017,07,14,15,51,25.40
2017,07,14,15,52,25.50
2017,07,14,15,53,25.50
2017,07,14,15,54,25.60
2017,07,14,15,55,25.60
2017,07,14,15,56,25.60
2017,07,14,15,57,25.70
2017,07,14,15,58,25.60
2017,07,14,15,59,25.60
2017,07,14,16,00,25.60
2017,07,14,16,01,25.60
2017,07,14,16,02,25.70
2017,07,14,16,03,25.70
2017,07,14,16,04,25.80
2017,07,14,16,05,25.80
2017,07,14,16,06,25.90
2017,07,14,16,07,25.90
2017,07,14,16,08,25.90
2017,07,14,16,09,26.00
2017,07,14,16,10,25.90
2017,07,14,16,11,26.00
2017,07,14,16,12,26.00
2017,07,14,16,13,26.00
2017,07,14,16,14,26.00
2017,07,14,16,15,26.00
2017,07,14,16,16,26.00
2017,07,14,16,17,26.00
2017,07,14,16,18,26.00
2017,07,14,16,19,26.00
2017,07,14,16,20,26.10
2017,07,14,16,21,26.00
2017,07,14,16,22,25.90
2017,07,14,16,23,25.80
2017,07,14,16,24,25.90
2017,07,14,16,25,25.90
2017,07,14,16,26,25.90
2017,07,14,16,27,26.00
2017,07,14,16,28,26.10
2017,07,14,16,29,26.00
2017,07,14,16,30,25.90
2017,07,14,16,31,25.90
2017,07,14,16,32,25.90
2017,07,14,16,33,25.90
2017,07,14,16,34,25.90
2017,07,14,16,35,25.90
2017,07,14,16,36,25.90
2017,07,14,16,37,26.00
2017,07,14,16,38,26.00
2017,07,14,16,39,26.10
2017,07,14,16,40,26.20
2017,07,14,16,41,26.20
2017,07,14,16,42,26.10
2017,07,14,16,43,26.10
2017,07,14,16,44,26.00
2017,07,14,16,45,25.90
2017,07,14,16,46,26.00
2017,07,14,16,47,26.00
2017,07,14,16,48,26.00
2017,07,14,16,49,26.00
2017,07,14,16,50,25.90
2017,07,14,16,51,25.90
2017,07,14,16,52,26.00
2017,07,14,16,53,26.00
2017,07,14,16,54,26.00
2017,07,14,16,55,25.90
2017,07,14,16,56,25.90
2017,07,14,16,57,25.80
2017,07,14,16,58,25.80
2017,07,14,16,59,25.80
2017,07,14,17,00,25.70
2017,07,14,17,01,25.70
2017,07,14,17,02,25.60
2017,07,14,17,03,25.50
2017,07,14,17,04,25.50
2017,07,14,17,05,25.50
2017,07,14,17,06,25.40
2017,07,14,17,07,25.40
2017,07,14,17,08,25.40
2017,07,14,17,09,25.30
2017,07,14,17,10,25.30
2017,07,14,17,11,25.30
2017,07,14,17,12,25.30
2017,07,14,17,13,25.30
2017,07,14,17,14,25.30
2017,07,14,17,15,25.40
2017,07,14,17,16,25.40
2017,07,14,17,17,25.40
2017,07,14,17,18,25.50
2017,07,14,17,19,25.50
2017,07,14,17,20,25.50
2017,07,14,17,21,25.50
2017,07,14,17,22,25.40
2017,07,14,17,23,25.50
2017,07,14,17,24,25.50
2017,07,14,17,25,25.60
2017,07,14,17,26,25.70